Weather History for New Bedford, MA

Change the Weather History Date:

Thursday, November 1, 2012

  Actual Average Record
Temperature  
Mean Temperature 50 °F -  
Max Temperature 57 °F 57 °F 78 °F (1974)
Min Temperature 43 °F 43 °F 30 °F (1996)
Degree Days  
Heating Degree Days 16    
Moisture  
Dew Point 42 °F    
Average Humidity 77    
Maximum Humidity 93    
Minimum Humidity 59    
Precipitation  
Precipitation 0.00 in - - ()
Sea Level Pressure  
Sea Level Pressure 29.55 in    
Wind  
Wind Speed 4 mph (SW)    
Max Wind Speed 17 mph    
Max Gust Speed 26 mph    
Visibility 10 miles    
Events Rain    
Averages and records for this station are not official NWS values.
T = Trace of Precipitation, MM = Missing Value Source: NWS Daily Summary

Daily Weather History Graph

Daily Weather History Graph

Search for Another Location

Airport:

Trip Planner

Search our weather history database for the weather conditions in past years. The results will help you decide how hot, cold, wet, or windy it might be!

Date:

Astronomy

Nov. 01, 2012 Rise Set
Actual Time 7:16 AM EDT 5:37 PM EDT
Civil Twilight 6:47 AM EDT 6:06 PM EDT
Nautical Twilight 6:14 AM EDT 6:39 PM EDT
Astronomical Twilight 5:42 AM EDT 7:11 PM EDT
Moon 7:30 PM EDT (11/1) 9:48 AM EDT (11/1)
Length of Visible Light 11h 19m
Length of Day
10h 21m
Waning Gibbous, 93% of the Moon is Illuminated
Nov 1
Waning Gibbous
Nov 6
Last Quarter
Nov 13
New
Nov 20
First Quarter
Nov 28
Full

Hourly Weather History & Observations

Time (EDT) Temp. Windchill Dew Point Humidity Pressure Visibility Wind Dir Wind Speed Gust Speed Precip Events Conditions
12:53 AM 45.0 °F - 43.0 °F 93% 29.56 in 10.0 mi Calm Calm - N/A   Mostly Cloudy
1:53 AM 46.9 °F - 45.0 °F 93% 29.55 in 10.0 mi Calm Calm - N/A   Overcast
2:35 AM 48.2 °F - 44.6 °F 87% 29.55 in 10.0 mi SSW 4.6 mph - 0.00 in Rain Light Rain
2:53 AM 48.9 °F - 45.0 °F 86% 29.55 in 10.0 mi WSW 3.5 mph - 0.00 in   Overcast
3:02 AM 48.2 °F - 44.6 °F 87% 29.55 in 10.0 mi West 5.8 mph - N/A   Overcast
3:53 AM 48.9 °F - 44.1 °F 83% 29.54 in 10.0 mi SW 3.5 mph - N/A   Clear
4:53 AM 48.0 °F - 41.0 °F 77% 29.55 in 10.0 mi SSW 3.5 mph - N/A   Overcast
5:53 AM 45.0 °F - 39.0 °F 80% 29.55 in 10.0 mi Calm Calm - N/A   Clear
6:53 AM 45.0 °F - 39.9 °F 82% 29.56 in 10.0 mi Calm Calm - N/A   Clear
7:53 AM 44.1 °F - 39.9 °F 85% 29.57 in 10.0 mi Calm Calm - N/A   Clear
8:53 AM 48.0 °F - 41.0 °F 77% 29.58 in 10.0 mi Calm Calm - N/A   Clear
9:53 AM 51.1 °F - 39.9 °F 66% 29.58 in 10.0 mi SW 5.8 mph - N/A   Partly Cloudy
10:53 AM 54.0 °F - 42.1 °F 64% 29.57 in 10.0 mi SSW 10.4 mph - N/A   Mostly Cloudy
11:53 AM 54.0 °F - 39.9 °F 59% 29.56 in 10.0 mi WSW 13.8 mph 24.2 mph N/A   Overcast
12:53 PM 55.0 °F - 41.0 °F 59% 29.54 in 10.0 mi SW 15.0 mph 25.3 mph N/A   Scattered Clouds
1:53 PM 55.0 °F - 41.0 °F 59% 29.53 in 10.0 mi SW 17.3 mph 26.5 mph N/A   Mostly Cloudy
2:53 PM 54.0 °F - 42.1 °F 64% 29.52 in 10.0 mi SW 12.7 mph 19.6 mph N/A   Overcast
3:53 PM 53.1 °F - 42.1 °F 66% 29.52 in 10.0 mi SW 9.2 mph 19.6 mph N/A   Mostly Cloudy
4:53 PM 52.0 °F - 42.1 °F 69% 29.52 in 10.0 mi SW 9.2 mph - N/A   Scattered Clouds
5:53 PM 51.1 °F - 42.1 °F 71% 29.52 in 10.0 mi SW 4.6 mph - N/A   Mostly Cloudy
6:53 PM 50.0 °F - 42.1 °F 74% 29.54 in 10.0 mi SW 4.6 mph - N/A   Clear
7:53 PM 48.0 °F - 42.1 °F 80% 29.55 in 10.0 mi SW 4.6 mph - N/A   Overcast
8:53 PM 48.0 °F - 41.0 °F 77% 29.55 in 10.0 mi WSW 5.8 mph - N/A   Clear
9:53 PM 46.0 °F - 41.0 °F 83% 29.55 in 10.0 mi Calm Calm - N/A   Mostly Cloudy
10:53 PM 44.1 °F 42.5 °F 41.0 °F 89% 29.56 in 10.0 mi SSW 3.5 mph - N/A   Overcast
11:53 PM 43.0 °F - 41.0 °F 93% 29.56 in 10.0 mi Calm Calm - N/A   Clear